Schneifelwetter: Wetterstation Hallschlag, 537 m . NN
Wetterdaten: Freitag, 17.11.2006
Datum Zeit Temp. A. Temp. 2 Feuchte A. Luftdruck Regen Wind Richtung Richtung Sonnenschein Helligkeit T Regen Taupunkt Windchill
17.11.2006 00:09 11,2 C 10,9 C 85 % 1005 hPa 0,0 l/m 24,4 km/h (4 Bft) S-SW67.5 205 0 min 0 lux 0,00 min 8,8 C 3,6 C
17.11.2006 00:24 11,1 C 10,7 C 87 % 1005 hPa 0,0 l/m 23,4 km/h (4 Bft) S45 190 0 min 0 lux 0,00 min 9,0 C 3,7 C
17.11.2006 00:39 10,8 C 10,4 C 89 % 1005 hPa 0,0 l/m 22,1 km/h (4 Bft) S-SW45 195 0 min 0 lux 0,00 min 9,1 C 3,7 C
17.11.2006 00:54 10,7 C 10,4 C 90 % 1005 hPa 0,3 l/m 20,8 km/h (4 Bft) S-SW22.5 195 0 min 0 lux 15,00 min 9,1 C 3,9 C
17.11.2006 01:09 10,7 C 10,4 C 90 % 1004 hPa 0,0 l/m 23,9 km/h (4 Bft) S45 190 0 min 0 lux 0,00 min 9,1 C 3,1 C
17.11.2006 01:24 10,8 C 10,4 C 90 % 1004 hPa 0,0 l/m 22,0 km/h (4 Bft) S22.5 185 0 min 0 lux 0,00 min 9,2 C 3,7 C
17.11.2006 01:39 10,7 C 10,3 C 90 % 1004 hPa 0,0 l/m 20,8 km/h (4 Bft) S22.5 180 0 min 0 lux 0,00 min 9,1 C 3,9 C
17.11.2006 01:54 10,6 C 10,3 C 91 % 1004 hPa 0,0 l/m 22,5 km/h (4 Bft) S22.5 180 0 min 0 lux 0,00 min 9,2 C 3,3 C
17.11.2006 02:10 10,5 C 10,2 C 91 % 1004 hPa 0,3 l/m 20,8 km/h (4 Bft) S45 180 0 min 0 lux 16,00 min 9,1 C 3,7 C
17.11.2006 02:25 10,5 C 10,2 C 92 % 1004 hPa 0,0 l/m 25,8 km/h (4 Bft) S-SW45 195 0 min 0 lux 0,00 min 9,3 C 2,3 C
17.11.2006 02:40 10,5 C 10,2 C 92 % 1004 hPa 0,0 l/m 23,3 km/h (4 Bft) S-SW45 195 0 min 0 lux 0,00 min 9,3 C 3,0 C
17.11.2006 02:55 10,5 C 10,1 C 92 % 1004 hPa 0,0 l/m 18,5 km/h (3 Bft) SW45 215 0 min 0 lux 0,00 min 9,3 C 4,4 C
17.11.2006 03:10 10,6 C 10,2 C 92 % 1005 hPa 0,3 l/m 25,7 km/h (4 Bft) SW67.5 225 0 min 0 lux 15,00 min 9,4 C 2,5 C
17.11.2006 03:24 10,6 C 10,3 C 92 % 1005 hPa 0,6 l/m 27,4 km/h (4 Bft) SW45 220 0 min 0 lux 14,00 min 9,4 C 2,1 C
17.11.2006 03:39 10,4 C 10,1 C 92 % 1005 hPa 0,6 l/m 27,9 km/h (4 Bft) SW22.5 235 0 min 0 lux 15,00 min 9,2 C 1,7 C
17.11.2006 03:54 10,0 C 9,6 C 92 % 1005 hPa 0,3 l/m 17,6 km/h (3 Bft) W45 265 0 min 0 lux 15,00 min 8,8 C 4,1 C
17.11.2006 04:09 9,7 C 9,3 C 91 % 1005 hPa 0,3 l/m 7,4 km/h (2 Bft) W-SW45 240 0 min 0 lux 15,00 min 8,3 C 9,0 C
17.11.2006 04:24 9,5 C 9,0 C 91 % 1005 hPa 0,3 l/m 7,0 km/h (2 Bft) SW22.5 230 0 min 0 lux 15,00 min 8,1 C 9,1 C
17.11.2006 04:39 9,4 C 8,9 C 91 % 1005 hPa 0,0 l/m 7,0 km/h (2 Bft) W-SW 250 0 min 0 lux 0,00 min 8,0 C 9,0 C
17.11.2006 04:54 9,3 C 8,9 C 92 % 1005 hPa 0,3 l/m 10,1 km/h (2 Bft) W-SW22.5 255 0 min 0 lux 15,00 min 8,1 C 6,8 C
17.11.2006 05:09 9,2 C 8,8 C 92 % 1005 hPa 0,3 l/m 12,2 km/h (2 Bft) W-SW45 245 0 min 0 lux 15,00 min 8,0 C 5,5 C
17.11.2006 05:24 9,1 C 8,6 C 92 % 1005 hPa 0,0 l/m 14,4 km/h (3 Bft) W-SW22.5 250 0 min 0 lux 0,00 min 7,9 C 4,3 C
17.11.2006 05:39 8,9 C 8,5 C 92 % 1005 hPa 0,0 l/m 13,0 km/h (3 Bft) W-SW45 245 0 min 0 lux 0,00 min 7,7 C 4,7 C
17.11.2006 05:54 8,8 C 8,4 C 92 % 1005 hPa 0,0 l/m 7,0 km/h (2 Bft) SW22.5 215 0 min 0 lux 0,00 min 7,6 C 8,3 C
17.11.2006 06:09 8,8 C 8,4 C 92 % 1005 hPa 0,3 l/m 13,0 km/h (3 Bft) W-SW22.5 240 0 min 0 lux 15,00 min 7,6 C 4,6 C
17.11.2006 06:24 8,8 C 8,4 C 93 % 1006 hPa 0,0 l/m 12,3 km/h (3 Bft) W-SW22.5 255 0 min 0 lux 0,00 min 7,7 C 5,0 C
17.11.2006 06:39 8,7 C 8,4 C 93 % 1006 hPa 0,3 l/m 17,4 km/h (3 Bft) W-SW45 250 0 min 0 lux 15,00 min 7,6 C 2,6 C
17.11.2006 06:54 8,7 C 8,3 C 93 % 1006 hPa 0,3 l/m 22,5 km/h (4 Bft) W22.5 260 0 min 0 lux 15,00 min 7,6 C 0,8 C
17.11.2006 07:09 8,6 C 8,2 C 93 % 1006 hPa 0,0 l/m 13,7 km/h (3 Bft) SW22.5 230 0 min 0 lux 0,00 min 7,5 C 4,0 C
17.11.2006 07:24 8,4 C 8,1 C 93 % 1006 hPa 0,3 l/m 9,4 km/h (2 Bft) SW22.5 215 0 min 36 lux 15,00 min 7,3 C 6,2 C
17.11.2006 07:39 8,4 C 8,0 C 93 % 1006 hPa 0,0 l/m 11,3 km/h (2 Bft) S22.5 180 0 min 75 lux 0,00 min 7,3 C 5,1 C
17.11.2006 08:00 8,4 C 7,9 C 93 % 1007 hPa 0,0 l/m 11,0 km/h (2 Bft) S22.5 175 0 min 278 lux 0,00 min 7,3 C 5,2 C
17.11.2006 08:15 8,4 C 8,0 C 93 % 1007 hPa 0,0 l/m 17,3 km/h (3 Bft) S45 190 0 min 667 lux 0,00 min 7,3 C 2,2 C
17.11.2006 08:30 8,5 C 8,0 C 93 % 1007 hPa 0,0 l/m 17,5 km/h (3 Bft) S22.5 185 0 min 1,59 klux 0,00 min 7,4 C 2,3 C
17.11.2006 08:45 8,5 C 8,0 C 93 % 1007 hPa 0,0 l/m 14,1 km/h (3 Bft) S-SW22.5 195 0 min 3,87 klux 0,00 min 7,4 C 3,7 C
17.11.2006 09:00 8,7 C 8,1 C 93 % 1007 hPa 0,0 l/m 17,0 km/h (3 Bft) S22.5 185 0 min 4,48 klux 0,00 min 7,6 C 2,7 C
17.11.2006 09:15 8,9 C 8,4 C 93 % 1007 hPa 0,0 l/m 20,8 km/h (4 Bft) S45 185 0 min 7,58 klux 0,00 min 7,8 C 1,6 C
17.11.2006 09:30 9,2 C 8,7 C 93 % 1007 hPa 0,0 l/m 19,8 km/h (3 Bft) S22.5 180 0 min 9,2 klux 0,00 min 8,1 C 2,3 C
17.11.2006 09:45 9,3 C 8,7 C 91 % 1008 hPa 0,0 l/m 28,0 km/h (4 Bft) SW45 225 0 min 8,73 klux 0,00 min 7,9 C 0,1 C
17.11.2006 10:00 9,2 C 8,7 C 90 % 1008 hPa 0,0 l/m 23,5 km/h (4 Bft) S-SW45 210 0 min 7,75 klux 0,00 min 7,6 C 1,2 C
17.11.2006 10:15 9,0 C 8,8 C 90 % 1008 hPa 0,0 l/m 19,7 km/h (3 Bft) S22.5 185 0 min 5,75 klux 0,00 min 7,4 C 2,1 C
17.11.2006 10:30 9,1 C 8,9 C 90 % 1008 hPa 0,0 l/m 24,9 km/h (4 Bft) SW45 220 0 min 6,46 klux 0,00 min 7,5 C 0,6 C
17.11.2006 10:46 9,0 C 8,8 C 91 % 1008 hPa 0,0 l/m 39,5 km/h (6 Bft) S-SW45 195 0 min 4,96 klux 0,00 min 7,6 C -2,5 C
17.11.2006 11:00 9,2 C 9,0 C 91 % 1008 hPa 0,0 l/m 27,3 km/h (4 Bft) SW45 225 0 min 6,84 klux 0,00 min 7,8 C 0,2 C
17.11.2006 11:15 9,4 C 9,1 C 90 % 1009 hPa 0,0 l/m 33,4 km/h (5 Bft) SW67.5 215 0 min 17,5 klux 0,00 min 7,8 C -0,9 C
17.11.2006 11:30 9,8 C 9,6 C 90 % 1009 hPa 0,0 l/m 39,8 km/h (6 Bft) W-SW45 240 0 min 21,0 klux 0,00 min 8,2 C -1,4 C
17.11.2006 11:45 10,0 C 9,5 C 89 % 1009 hPa 0,0 l/m 44,2 km/h (6 Bft) W-SW67.5 245 0 min 19,9 klux 0,00 min 8,3 C -1,7 C
17.11.2006 12:00 9,8 C 9,3 C 89 % 1009 hPa 0,0 l/m 40,8 km/h (6 Bft) W-SW45 240 0 min 12,9 klux 0,00 min 8,1 C -1,5 C
17.11.2006 12:15 9,6 C 9,0 C 89 % 1009 hPa 0,3 l/m 35,9 km/h (5 Bft) SW45 225 0 min 12,5 klux 15,00 min 7,9 C -1,0 C
17.11.2006 12:30 9,5 C 8,9 C 89 % 1009 hPa 0,3 l/m 42,4 km/h (6 Bft) SW45 220 0 min 14,7 klux 15,00 min 7,8 C -2,2 C
17.11.2006 12:45 9,4 C 8,7 C 89 % 1009 hPa 0,0 l/m 30,6 km/h (5 Bft) W-SW45 250 0 min 13,8 klux 0,00 min 7,7 C -0,3 C
17.11.2006 13:00 9,5 C 8,7 C 90 % 1009 hPa 0,0 l/m 25,0 km/h (4 Bft) SW45 220 0 min 13,1 klux 0,00 min 7,9 C 1,2 C
17.11.2006 13:15 9,6 C 8,9 C 89 % 1009 hPa 0,0 l/m 32,0 km/h (5 Bft) SW45 235 0 min 16,3 klux 0,00 min 7,9 C -0,3 C
17.11.2006 13:30 9,4 C 8,7 C 89 % 1009 hPa 0,3 l/m 24,7 km/h (4 Bft) S-SW22.5 195 0 min 9,3 klux 15,00 min 7,7 C 1,1 C
17.11.2006 13:46 9,4 C 8,9 C 90 % 1009 hPa 0,0 l/m 38,1 km/h (5 Bft) SW45 220 0 min 16,7 klux 0,00 min 7,8 C -1,7 C
17.11.2006 14:01 9,6 C 9,1 C 89 % 1009 hPa 0,0 l/m 33,6 km/h (5 Bft) SW67.5 235 0 min 31,8 klux 0,00 min 7,9 C -0,6 C
17.11.2006 14:15 9,2 C 8,8 C 88 % 1009 hPa 0,0 l/m 36,6 km/h (5 Bft) SW45 235 0 min 9,9 klux 0,00 min 7,3 C -1,7 C
17.11.2006 14:30 9,2 C 9,0 C 89 % 1009 hPa 0,0 l/m 26,8 km/h (4 Bft) S-SW22.5 195 0 min 15,0 klux 0,00 min 7,5 C 0,3 C
17.11.2006 14:45 9,4 C 9,2 C 88 % 1009 hPa 0,0 l/m 25,5 km/h (4 Bft) SW45 220 0 min 13,5 klux 0,00 min 7,5 C 0,9 C
17.11.2006 15:00 9,4 C 9,2 C 88 % 1009 hPa 0,0 l/m 30,7 km/h (5 Bft) SW45 225 0 min 10,8 klux 0,00 min 7,5 C -0,3 C
17.11.2006 15:15 9,4 C 9,2 C 88 % 1009 hPa 0,0 l/m 13,6 km/h (3 Bft) S22.5 175 0 min 10,2 klux 0,00 min 7,5 C 5,0 C
17.11.2006 15:30 9,2 C 9,1 C 88 % 1009 hPa 0,0 l/m 21,8 km/h (4 Bft) S-SW45 205 0 min 7,46 klux 0,00 min 7,3 C 1,7 C
17.11.2006 15:45 9,2 C 8,9 C 88 % 1009 hPa 0,0 l/m 21,3 km/h (4 Bft) S-SW67.5 205 0 min 6,51 klux 0,00 min 7,3 C 1,8 C
17.11.2006 16:00 9,1 C 8,8 C 89 % 1009 hPa 0,0 l/m 21,2 km/h (4 Bft) SW45 220 0 min 3,13 klux 0,00 min 7,4 C 1,7 C
17.11.2006 16:15 9,0 C 8,6 C 88 % 1009 hPa 0,0 l/m 26,0 km/h (4 Bft) S-SW67.5 210 0 min 2,89 klux 0,00 min 7,1 C 0,2 C
17.11.2006 16:30 8,7 C 8,3 C 88 % 1009 hPa 0,0 l/m 25,0 km/h (4 Bft) S22.5 175 0 min 2,70 klux 0,00 min 6,8 C 0,1 C
17.11.2006 16:45 8,4 C 8,0 C 89 % 1009 hPa 0,0 l/m 20,6 km/h (4 Bft) S22.5 180 0 min 1,28 klux 0,00 min 6,7 C 1,0 C
17.11.2006 17:00 8,4 C 8,0 C 89 % 1009 hPa 0,0 l/m 22,5 km/h (4 Bft) SW67.5 215 0 min 577 lux 0,00 min 6,7 C 0,4 C
17.11.2006 17:15 8,1 C 7,7 C 89 % 1009 hPa 0,0 l/m 27,4 km/h (4 Bft) S-SW45 205 0 min 85 lux 0,00 min 6,4 C -1,4 C
17.11.2006 17:30 7,9 C 7,5 C 90 % 1009 hPa 0,0 l/m 28,8 km/h (4 Bft) S45 190 0 min 12 lux 0,00 min 6,4 C -2,0 C
17.11.2006 17:45 7,7 C 7,2 C 90 % 1009 hPa 0,0 l/m 23,6 km/h (4 Bft) S-SW22.5 195 0 min 0 lux 0,00 min 6,2 C -0,9 C
17.11.2006 18:00 7,8 C 7,4 C 91 % 1009 hPa 0,0 l/m 20,8 km/h (4 Bft) SW45 225 0 min 0 lux 0,00 min 6,4 C 0,2 C
17.11.2006 18:15 7,7 C 7,2 C 91 % 1009 hPa 0,0 l/m 29,0 km/h (5 Bft) S-SW45 210 0 min 0 lux 0,00 min 6,3 C -2,3 C
17.11.2006 18:31 7,5 C 7,1 C 90 % 1009 hPa 0,0 l/m 24,9 km/h (4 Bft) S-SW22.5 205 0 min 0 lux 0,00 min 6,0 C -1,5 C
17.11.2006 18:45 7,6 C 7,1 C 91 % 1009 hPa 0,0 l/m 33,0 km/h (5 Bft) S-SW45 205 0 min 0 lux 0,00 min 6,2 C -3,4 C
17.11.2006 19:00 7,7 C 7,3 C 91 % 1009 hPa 0,0 l/m 27,4 km/h (4 Bft) SW45 220 0 min 0 lux 0,00 min 6,3 C -1,9 C
17.11.2006 19:15 7,8 C 7,6 C 91 % 1009 hPa 0,0 l/m 30,6 km/h (5 Bft) SW67.5 215 0 min 0 lux 0,00 min 6,4 C -2,6 C
17.11.2006 19:30 7,8 C 7,5 C 90 % 1009 hPa 0,0 l/m 26,8 km/h (4 Bft) S-SW45 195 0 min 0 lux 0,00 min 6,3 C -1,6 C
17.11.2006 19:45 7,8 C 7,4 C 90 % 1009 hPa 0,0 l/m 30,1 km/h (5 Bft) S22.5 185 0 min 0 lux 0,00 min 6,3 C -2,5 C
17.11.2006 20:00 7,6 C 7,2 C 90 % 1009 hPa 0,0 l/m 25,6 km/h (4 Bft) S-SW45 195 0 min 0 lux 0,00 min 6,1 C -1,6 C
17.11.2006 20:15 7,5 C 7,0 C 90 % 1009 hPa 0,0 l/m 32,1 km/h (5 Bft) S-SW45 205 0 min 0 lux 0,00 min 6,0 C -3,3 C
17.11.2006 20:30 7,3 C 6,8 C 90 % 1009 hPa 0,0 l/m 27,6 km/h (4 Bft) S45 190 0 min 0 lux 0,00 min 5,8 C -2,5 C
17.11.2006 20:45 7,2 C 6,6 C 91 % 1009 hPa 0,0 l/m 34,1 km/h (5 Bft) S22.5 185 0 min 0 lux 0,00 min 5,8 C -4,2 C
17.11.2006 21:00 7,0 C 6,4 C 91 % 1008 hPa 0,0 l/m 27,2 km/h (4 Bft) S-SW45 195 0 min 0 lux 0,00 min 5,6 C -2,9 C
17.11.2006 21:15 7,0 C 6,3 C 91 % 1009 hPa 0,0 l/m 22,8 km/h (4 Bft) S-SW45 205 0 min 0 lux 0,00 min 5,6 C -1,6 C
17.11.2006 21:30 7,1 C 6,5 C 91 % 1009 hPa 0,0 l/m 34,4 km/h (5 Bft) SW45 225 0 min 0 lux 0,00 min 5,7 C -4,4 C
17.11.2006 21:45 7,2 C 6,6 C 91 % 1009 hPa 0,0 l/m 29,4 km/h (5 Bft) S-SW45 200 0 min 0 lux 0,00 min 5,8 C -3,1 C
17.11.2006 22:00 7,0 C 6,3 C 91 % 1009 hPa 0,0 l/m 25,4 km/h (4 Bft) S-SW45 205 0 min 0 lux 0,00 min 5,6 C -2,3 C
17.11.2006 22:15 6,8 C 6,1 C 91 % 1009 hPa 0,0 l/m 22,7 km/h (4 Bft) S45 190 0 min 0 lux 0,00 min 5,4 C -1,8 C
17.11.2006 22:30 6,8 C 6,3 C 92 % 1009 hPa 0,0 l/m 23,3 km/h (4 Bft) S22.5 185 0 min 0 lux 0,00 min 5,6 C -2,0 C
17.11.2006 22:45 6,9 C 6,3 C 92 % 1009 hPa 0,0 l/m 27,9 km/h (4 Bft) S22.5 180 0 min 0 lux 0,00 min 5,7 C -3,2 C
17.11.2006 23:00 6,8 C 6,4 C 92 % 1009 hPa 0,0 l/m 23,3 km/h (4 Bft) S-SW45 210 0 min 0 lux 0,00 min 5,6 C -2,0 C
17.11.2006 23:15 6,9 C 6,4 C 92 % 1009 hPa 0,0 l/m 34,9 km/h (5 Bft) S-SW45 205 0 min 0 lux 0,00 min 5,7 C -4,8 C
17.11.2006 23:30 6,9 C 6,5 C 92 % 1009 hPa 0,0 l/m 32,7 km/h (5 Bft) SW67.5 215 0 min 0 lux 0,00 min 5,7 C -4,3 C
17.11.2006 23:45 6,9 C 6,5 C 92 % 1009 hPa 0,0 l/m 24,0 km/h (4 Bft) S45 190 0 min 0 lux 0,00 min 5,7 C -2,1 C
_ Min-Zeit 22:15 22:15 00:09 01:09 - 04:24 - - - - - 22:15 23:15
Minimum _ 6,8 C 6,1 C 85 % 1004 hPa - 7,0 km/h (2 Bft) - - - - - 5,4 C -4,8 C
_ Max-Zeit 00:09 00:09 06:24 11:15 03:24 11:45 - - 00:09 14:01 02:10 03:10 04:24
Maximum _ 11,2 C 10,9 C 93 % 1009 hPa 0,6 l/m 44,2 km/h
W-SW (6 Bft)
- - 0 min 31,8 klux 16,00 min 9,4 C 9,1 C
Durchschnitt _ 8,9 C 8,4 C 91 % 1008 hPa #5,5 l/m 24,1 km/h (4 Bft) SW - #0 min. 3,70 klux #4:15 h 7,4 C 1,0 C